Regional Weather Roundup
Issued by NWS

Home | Current Version | Previous Version | Graphics & Text | Print | Product List | Glossary On
Versions: 1 2 3 4 5 6 7 8 9 10 11 12 13 14 15 16 17 18 19 20 21 22 23 24 25 26 27 28 29 30 31 32 33 34 35 36 37 38 39 40 41 42 43 44 45 46 47 48 49 50
000
ASUS45 KSLC 272310
RWRUT

UTAH REGIONAL WEATHER ROUNDUP
NATIONAL WEATHER SERVICE SALT LAKE CITY UT
400 PM MST THU NOV 27 2014

UTZ001>011-023>025-280000-

NORTHERN UTAH

CITY           SKY/WX    TMP DP  RH WIND       PRES   REMARKS
BRIGHAM CITY   CLOUDY    54  31  42 N3        30.20F
HILL AFB       CLOUDY    55  25  31 SE3       30.21F
LOGAN          CLEAR     47  36  65 SE3       30.20F
OGDEN          CLOUDY    55  28  35 S3        30.19F
PROVO AIRPORT  CLOUDY    41  30  65 VRB3      30.25S
SALT LAKE CITY CLOUDY    55  25  31 E6        30.19F
VERNAL         MOCLDY    51  23  33 E3        30.27F
WENDOVER       MOSUNNY   52  25  35 NE3       30.20S
HEBER CITY     CLOUDY    45  32  61 SE6       30.26S
WEST JORDAN    CLEAR     57  30  35 S15       30.21F

$$

UTZ012>022-026-027-280000-

SOUTHERN/CENTRAL UTAH

CITY           SKY/WX    TMP DP  RH WIND       PRES   REMARKS
BLANDING       PTCLDY    51  23  33 S3        30.43S
BRYCE CANYON   CLOUDY    49  14  24 SE13      30.38F
CEDAR CITY     CLOUDY    59  15  18 VRB6      30.28R
DELTA          CLOUDY    53  24  32 CALM      30.24F
MILFORD        PTSUNNY   57  22  25 S15       30.23F
MOAB/CYNLANDS  CLEAR     54  24  31 CALM      30.30F
PRICE          MOCLDY    50  23  34 CALM      30.34S
ST GEORGE      CLOUDY    57  19  23 SE3       30.24S
KANAB          PTSUNNY   61  19  20 CALM      30.32F

$$

REGIONAL REPORTS     COLORADO/ARIZONA

CITY           SKY/WX    TMP DP  RH WIND       PRES   REMARKS
CRAIG, CO      CLOUDY    42  27  55 SE3       30.28S
GRAND JUNCTION MOCLDY    50  27  40 W5        30.32F
RIFLE          CLOUDY    46  28  49 CALM      30.32F
MONTROSE       PTCLDY    55  23  28 SW3       30.34F
CORTEZ         CLEAR     50  23  34 SW7       30.37S
PAGE, AZ       PTSUNNY   56  19  23 CALM      30.30F
GRAND CANYON   PTSUNNY   64   2   8 SW5       30.35F
KINGMAN        CLOUDY    69  18  14 N12       30.20S
FLAGSTAFF      SUNNY     64  13  13 E5        30.37F

$$

REGIONAL REPORTS    NEVADA/IDAHO/WYOMING

CITY           SKY/WX    TMP DP  RH WIND       PRES   REMARKS
LAS VEGAS, NV  CLOUDY    64  19  17 S5        30.15F
ELY            CLOUDY    61  11  14 VRB3      30.27F
ELKO           CLOUDY    57  35  43 SW5       30.18F
POCATELLO, ID  PTCLDY    60  28  29 S15       30.13F
BURLEY         PTCLDY    59  34  39 SW9       30.11S
EVANSTON, WY   MOCLDY    50  21  32 SW14      30.28S
ROCK SPRINGS   MOCLDY    47  22  37 W22       30.23F

$$


USA.gov is the U.S. government's official web portal to all federal, state and local government web resources and services.